Time,TemperatureF,DewpointF,PressureIn,WindDirection,WindDirectionDegrees,WindSpeedMPH,WindSpeedGustMPH,Humidity,HourlyPrecipIn,Conditions,Clouds,dailyrainin,SoftwareType,DateUTC
2013-08-31 00:12:00,77.2,-99.9,30.00,North,5,5.0,-999.0,0,-99.99,,,0.00,weatherlink.com 1.10,2013-08-31 04:12:00,
2013-08-31 00:27:00,77.5,-99.9,30.00,North,5,4.0,-999.0,0,-99.99,,,0.00,weatherlink.com 1.10,2013-08-31 04:27:00,
2013-08-31 00:42:00,77.6,-99.9,30.00,North,5,6.0,-999.0,0,-99.99,,,0.00,weatherlink.com 1.10,2013-08-31 04:42:00,
2013-08-31 00:57:00,77.5,-99.9,29.99,North,5,5.0,-999.0,0,-99.99,,,0.00,weatherlink.com 1.10,2013-08-31 04:57:00,
2013-08-31 01:12:00,77.5,-99.9,29.99,North,5,2.0,-999.0,0,-99.99,,,0.00,weatherlink.com 1.10,2013-08-31 05:12:00,
2013-08-31 01:27:00,77.2,-99.9,29.99,North,5,2.0,-999.0,0,-99.99,,,0.00,weatherlink.com 1.10,2013-08-31 05:27:00,
2013-08-31 01:42:00,76.9,-99.9,29.99,North,5,1.0,-999.0,0,-99.99,,,0.00,weatherlink.com 1.10,2013-08-31 05:42:00,
2013-08-31 01:58:00,77.1,-99.9,29.99,North,5,4.0,-999.0,0,-99.99,,,0.00,weatherlink.com 1.10,2013-08-31 05:58:00,
2013-08-31 02:13:00,76.9,-99.9,29.99,North,5,2.0,-999.0,0,-99.99,,,0.00,weatherlink.com 1.10,2013-08-31 06:13:00,
2013-08-31 02:28:00,76.9,-99.9,29.98,North,5,1.0,-999.0,0,-99.99,,,0.00,weatherlink.com 1.10,2013-08-31 06:28:00,
2013-08-31 02:43:00,76.6,-99.9,29.98,North,5,3.0,-999.0,0,-99.99,,,0.00,weatherlink.com 1.10,2013-08-31 06:43:00,
2013-08-31 02:58:00,76.6,-99.9,29.98,North,5,0.0,-999.0,0,-99.99,,,0.00,weatherlink.com 1.10,2013-08-31 06:58:00,
2013-08-31 03:13:00,77.0,-99.9,29.97,North,5,3.0,-999.0,0,-99.99,,,0.00,weatherlink.com 1.10,2013-08-31 07:13:00,
2013-08-31 03:28:00,76.9,-99.9,29.97,North,5,2.0,-999.0,0,-99.99,,,0.00,weatherlink.com 1.10,2013-08-31 07:28:00,
2013-08-31 03:43:00,77.6,-99.9,29.97,North,5,6.0,-999.0,0,-99.99,,,0.00,weatherlink.com 1.10,2013-08-31 07:43:00,
2013-08-31 04:02:00,77.9,-99.9,29.97,North,5,5.0,-999.0,0,-99.99,,,0.00,weatherlink.com 1.10,2013-08-31 08:02:00,
2013-08-31 04:16:00,77.9,-99.9,29.97,North,5,4.0,-999.0,0,-99.99,,,0.00,weatherlink.com 1.10,2013-08-31 08:16:00,
2013-08-31 04:28:00,77.4,-99.9,29.97,North,5,0.0,-999.0,0,-99.99,,,0.00,weatherlink.com 1.10,2013-08-31 08:28:00,
2013-08-31 04:43:00,77.1,-99.9,29.97,North,5,2.0,-999.0,0,-99.99,,,0.00,weatherlink.com 1.10,2013-08-31 08:43:00,
2013-08-31 04:58:00,77.0,-99.9,29.98,North,5,2.0,-999.0,0,-99.99,,,0.00,weatherlink.com 1.10,2013-08-31 08:58:00,
2013-08-31 05:13:00,77.0,-99.9,29.98,North,5,0.0,-999.0,0,-99.99,,,0.00,weatherlink.com 1.10,2013-08-31 09:13:00,
2013-08-31 05:28:00,76.7,-99.9,29.98,North,5,0.0,-999.0,0,-99.99,,,0.00,weatherlink.com 1.10,2013-08-31 09:28:00,
2013-08-31 05:44:00,76.6,-99.9,29.98,North,5,0.0,-999.0,0,-99.99,,,0.00,weatherlink.com 1.10,2013-08-31 09:44:00,
2013-08-31 05:59:00,76.2,-99.9,29.98,North,5,3.0,-999.0,0,-99.99,,,0.00,weatherlink.com 1.10,2013-08-31 09:59:00,
2013-08-31 06:14:00,76.3,-99.9,29.98,North,5,1.0,-999.0,0,-99.99,,,0.00,weatherlink.com 1.10,2013-08-31 10:14:00,
2013-08-31 06:29:00,75.6,-99.9,29.99,North,5,3.0,-999.0,0,-99.99,,,0.00,weatherlink.com 1.10,2013-08-31 10:29:00,
2013-08-31 06:44:00,75.6,-99.9,29.99,North,5,5.0,-999.0,0,-99.99,,,0.00,weatherlink.com 1.10,2013-08-31 10:44:00,
2013-08-31 06:59:00,74.9,-99.9,29.99,North,5,6.0,-999.0,0,-99.99,,,0.00,weatherlink.com 1.10,2013-08-31 10:59:00,
2013-08-31 07:14:00,74.4,-99.9,29.99,North,5,2.0,-999.0,0,-99.99,,,0.00,weatherlink.com 1.10,2013-08-31 11:14:00,
2013-08-31 07:29:00,75.2,-99.9,29.99,North,5,2.0,-999.0,0,-99.99,,,0.00,weatherlink.com 1.10,2013-08-31 11:29:00,
2013-08-31 07:44:00,76.4,-99.9,30.00,North,5,1.0,-999.0,0,-99.99,,,0.00,weatherlink.com 1.10,2013-08-31 11:44:00,
2013-08-31 07:59:00,77.3,-99.9,30.00,North,5,3.0,-999.0,0,-99.99,,,0.00,weatherlink.com 1.10,2013-08-31 11:59:00,
2013-08-31 08:14:00,76.9,-99.9,30.00,North,5,3.0,-999.0,0,-99.99,,,0.00,weatherlink.com 1.10,2013-08-31 12:14:00,
2013-08-31 08:29:00,76.9,-99.9,30.00,North,5,2.0,-999.0,0,-99.99,,,0.00,weatherlink.com 1.10,2013-08-31 12:29:00,
2013-08-31 08:44:00,77.7,-99.9,30.00,North,5,0.0,-999.0,0,-99.99,,,0.00,weatherlink.com 1.10,2013-08-31 12:44:00,
2013-08-31 08:59:00,79.0,-99.9,30.00,North,5,0.0,-999.0,0,-99.99,,,0.00,weatherlink.com 1.10,2013-08-31 12:59:00,
2013-08-31 09:14:00,79.0,-99.9,30.01,North,5,0.0,-999.0,0,-99.99,,,0.00,weatherlink.com 1.10,2013-08-31 13:14:00,
2013-08-31 09:29:00,79.2,-99.9,30.01,North,5,0.0,-999.0,0,-99.99,,,0.00,weatherlink.com 1.10,2013-08-31 13:29:00,
2013-08-31 09:44:00,78.8,-99.9,30.01,North,5,0.0,-999.0,0,-99.99,,,0.00,weatherlink.com 1.10,2013-08-31 13:44:00,
2013-08-31 09:59:00,78.9,-99.9,30.01,North,5,3.0,-999.0,0,-99.99,,,0.00,weatherlink.com 1.10,2013-08-31 13:59:00,
2013-08-31 10:14:00,78.8,-99.9,30.02,North,5,3.0,-999.0,0,-99.99,,,0.00,weatherlink.com 1.10,2013-08-31 14:14:00,
2013-08-31 10:30:00,79.6,-99.9,30.02,North,5,0.0,-999.0,0,-99.99,,,0.00,weatherlink.com 1.10,2013-08-31 14:30:00,
2013-08-31 10:47:00,79.2,-99.9,30.02,North,5,0.0,-999.0,0,-99.99,,,0.00,weatherlink.com 1.10,2013-08-31 14:47:00,
2013-08-31 11:00:00,79.3,-99.9,30.02,North,5,4.0,-999.0,0,-99.99,,,0.00,weatherlink.com 1.10,2013-08-31 15:00:00,
2013-08-31 11:15:00,79.6,-99.9,30.02,North,5,4.0,-999.0,0,-99.99,,,0.00,weatherlink.com 1.10,2013-08-31 15:15:00,
2013-08-31 11:30:00,79.4,-99.9,30.02,North,5,5.0,-999.0,0,-99.99,,,0.00,weatherlink.com 1.10,2013-08-31 15:30:00,
2013-08-31 11:45:00,79.4,-99.9,30.01,North,5,4.0,-999.0,0,-99.99,,,0.00,weatherlink.com 1.10,2013-08-31 15:45:00,
2013-08-31 12:00:00,79.8,-99.9,30.01,North,5,6.0,-999.0,0,-99.99,,,0.00,weatherlink.com 1.10,2013-08-31 16:00:00,
2013-08-31 12:15:00,79.9,-99.9,30.01,North,5,5.0,-999.0,0,-99.99,,,0.00,weatherlink.com 1.10,2013-08-31 16:15:00,
2013-08-31 12:30:00,80.0,-99.9,30.01,North,5,6.0,-999.0,0,-99.99,,,0.00,weatherlink.com 1.10,2013-08-31 16:30:00,
2013-08-31 12:45:00,80.1,-99.9,30.00,North,5,6.0,-999.0,0,-99.99,,,0.00,weatherlink.com 1.10,2013-08-31 16:45:00,
2013-08-31 13:00:00,79.8,-99.9,30.01,North,5,3.0,-999.0,0,-99.99,,,0.00,weatherlink.com 1.10,2013-08-31 17:00:00,
2013-08-31 13:15:00,80.2,-99.9,30.01,North,5,6.0,-999.0,0,-99.99,,,0.00,weatherlink.com 1.10,2013-08-31 17:15:00,
2013-08-31 13:30:00,80.5,-99.9,30.00,North,5,5.0,-999.0,0,-99.99,,,0.00,weatherlink.com 1.10,2013-08-31 17:30:00,
2013-08-31 13:45:00,81.1,-99.9,30.00,North,5,7.0,-999.0,0,-99.99,,,0.00,weatherlink.com 1.10,2013-08-31 17:45:00,
2013-08-31 14:01:00,81.0,-99.9,30.00,North,5,5.0,-999.0,0,-99.99,,,0.00,weatherlink.com 1.10,2013-08-31 18:01:00,
2013-08-31 14:16:00,80.8,-99.9,29.99,North,5,7.0,-999.0,0,-99.99,,,0.00,weatherlink.com 1.10,2013-08-31 18:16:00,
2013-08-31 14:31:00,81.1,-99.9,29.98,North,5,7.0,-999.0,0,-99.99,,,0.00,weatherlink.com 1.10,2013-08-31 18:31:00,
2013-08-31 14:46:00,80.7,-99.9,29.98,North,5,9.0,-999.0,0,-99.99,,,0.00,weatherlink.com 1.10,2013-08-31 18:46:00,
2013-08-31 15:01:00,80.6,-99.9,29.97,North,5,8.0,-999.0,0,-99.99,,,0.00,weatherlink.com 1.10,2013-08-31 19:01:00,
2013-08-31 15:16:00,80.5,-99.9,29.96,North,5,9.0,-999.0,0,-99.99,,,0.00,weatherlink.com 1.10,2013-08-31 19:16:00,
2013-08-31 15:34:00,80.6,-99.9,29.96,North,5,8.0,-999.0,0,-99.99,,,0.00,weatherlink.com 1.10,2013-08-31 19:34:00,
2013-08-31 15:46:00,79.8,-99.9,29.95,North,5,9.0,-999.0,0,-99.99,,,0.00,weatherlink.com 1.10,2013-08-31 19:46:00,
2013-08-31 16:02:00,79.8,-99.9,29.95,North,5,9.0,-999.0,0,-99.99,,,0.00,weatherlink.com 1.10,2013-08-31 20:02:00,
2013-08-31 16:17:00,80.2,-99.9,29.95,North,5,8.0,-999.0,0,-99.99,,,0.00,weatherlink.com 1.10,2013-08-31 20:17:00,
2013-08-31 16:32:00,79.7,-99.9,29.95,North,5,9.0,-999.0,0,-99.99,,,0.00,weatherlink.com 1.10,2013-08-31 20:32:00,
2013-08-31 16:47:00,79.7,-99.9,29.94,North,5,9.0,-999.0,0,-99.99,,,0.00,weatherlink.com 1.10,2013-08-31 20:47:00,
2013-08-31 17:02:00,80.1,-99.9,29.94,North,5,9.0,-999.0,0,-99.99,,,0.00,weatherlink.com 1.10,2013-08-31 21:02:00,
2013-08-31 17:17:00,79.8,-99.9,29.93,North,5,11.0,-999.0,0,-99.99,,,0.00,weatherlink.com 1.10,2013-08-31 21:17:00,
2013-08-31 17:47:00,79.6,-99.9,29.94,North,5,10.0,-999.0,0,-99.99,,,0.00,weatherlink.com 1.10,2013-08-31 21:47:00,
2013-08-31 18:02:00,79.3,-99.9,29.94,North,5,8.0,-999.0,0,-99.99,,,0.00,weatherlink.com 1.10,2013-08-31 22:02:00,
2013-08-31 18:17:00,79.5,-99.9,29.94,North,5,8.0,-999.0,0,-99.99,,,0.00,weatherlink.com 1.10,2013-08-31 22:17:00,
2013-08-31 18:32:00,79.3,-99.9,29.94,North,5,7.0,-999.0,0,-99.99,,,0.00,weatherlink.com 1.10,2013-08-31 22:32:00,
2013-08-31 18:47:00,79.7,-99.9,29.94,North,5,7.0,-999.0,0,-99.99,,,0.00,weatherlink.com 1.10,2013-08-31 22:47:00,
2013-08-31 19:02:00,79.4,-99.9,29.94,North,5,7.0,-999.0,0,-99.99,,,0.00,weatherlink.com 1.10,2013-08-31 23:02:00,
2013-08-31 19:18:00,79.6,-99.9,29.95,North,5,5.0,-999.0,0,-99.99,,,0.00,weatherlink.com 1.10,2013-08-31 23:18:00,
2013-08-31 19:33:00,79.6,-99.9,29.94,North,5,7.0,-999.0,0,-99.99,,,0.00,weatherlink.com 1.10,2013-08-31 23:33:00,
2013-08-31 19:48:00,79.9,-99.9,29.93,North,5,7.0,-999.0,0,-99.99,,,0.00,weatherlink.com 1.10,2013-08-31 23:48:00,
2013-08-31 20:03:00,79.4,-99.9,29.94,North,5,9.0,-999.0,0,-99.99,,,0.00,weatherlink.com 1.10,2013-09-01 00:03:00,
2013-08-31 20:18:00,79.6,-99.9,29.95,North,5,6.0,-999.0,0,-99.99,,,0.00,weatherlink.com 1.10,2013-09-01 00:18:00,
2013-08-31 20:33:00,79.6,-99.9,29.95,North,5,5.0,-999.0,0,-99.99,,,0.00,weatherlink.com 1.10,2013-09-01 00:33:00,
2013-08-31 20:48:00,79.9,-99.9,29.95,North,5,5.0,-999.0,0,-99.99,,,0.00,weatherlink.com 1.10,2013-09-01 00:48:00,
2013-08-31 21:03:00,79.7,-99.9,29.95,North,5,8.0,-999.0,0,-99.99,,,0.00,weatherlink.com 1.10,2013-09-01 01:03:00,
2013-08-31 21:18:00,79.8,-99.9,29.95,North,5,7.0,-999.0,0,-99.99,,,0.00,weatherlink.com 1.10,2013-09-01 01:18:00,
2013-08-31 21:33:00,79.5,-99.9,29.95,North,5,9.0,-999.0,0,-99.99,,,0.00,weatherlink.com 1.10,2013-09-01 01:33:00,
2013-08-31 22:03:00,79.6,-99.9,29.95,North,5,9.0,-999.0,0,-99.99,,,0.00,weatherlink.com 1.10,2013-09-01 02:03:00,
2013-08-31 22:19:00,79.9,-99.9,29.95,North,5,9.0,-999.0,0,-99.99,,,0.00,weatherlink.com 1.10,2013-09-01 02:19:00,
2013-08-31 22:33:00,79.6,-99.9,29.95,North,5,10.0,-999.0,0,-99.99,,,0.00,weatherlink.com 1.10,2013-09-01 02:33:00,
2013-08-31 22:49:00,79.6,-99.9,29.95,North,5,10.0,-999.0,0,-99.99,,,0.00,weatherlink.com 1.10,2013-09-01 02:49:00,
2013-08-31 23:04:00,79.7,-99.9,29.96,North,5,9.0,-999.0,0,-99.99,,,0.00,weatherlink.com 1.10,2013-09-01 03:04:00,
2013-08-31 23:22:00,79.6,-99.9,29.95,North,5,8.0,-999.0,0,-99.99,,,0.00,weatherlink.com 1.10,2013-09-01 03:22:00,
2013-08-31 23:34:00,79.7,-99.9,29.96,North,5,7.0,-999.0,0,-99.99,,,0.00,weatherlink.com 1.10,2013-09-01 03:34:00,
2013-08-31 23:49:00,80.0,-99.9,29.96,North,5,6.0,-999.0,0,-99.99,,,0.00,weatherlink.com 1.10,2013-09-01 03:49:00,